GW7499 Weather Reports


time (UTC)temp
C
wind
direction
speed
KPH
gust
KPH
rain 1hr
cm
rain 24hr
cm
rain mn
cm
humidity
%
barometer
mb
20260905103933 21 18 0.0 1.6 0.00 0.00 0.00 74 1010.1
20260905103428 21 19 0.0 1.6 0.00 0.00 0.00 74 1010.3
20260905102924 21 357 0.0 1.6 0.00 0.00 0.00 75 1010.3
20260905102420 21 3 1.6 1.6 0.00 0.00 0.00 76 1010.5
20260905101915 21 2 1.6 4.8 0.00 0.00 0.00 75 1010.2
20260905101414 21 26 3.2 4.8 0.00 0.00 0.00 75 1010.2
20260905100909 21 0 3.2 4.8 0.00 0.00 0.00 77 1010.2
20260905100405 21 320 0.0 4.8 0.00 0.00 0.00 78 1010.2
20260905095904 21 359 1.6 1.6 0.00 0.00 0.00 79 1010.1
20260905095359 21 3 3.2 3.2 0.00 0.00 0.00 82 1009.9
20260905094859 21 3 1.6 3.2 0.00 0.00 0.00 83 1010.1
20260905094354 20 3 0.0 1.6 0.00 0.00 0.00 86 1010.2
20260905093853 20 3 0.0 0.0 0.00 0.00 0.00 88 1010.1
20260905093349 20 3 0.0 0.0 0.00 0.00 0.00 89 1010.1
20260905092845 21 3 0.0 0.0 0.00 0.00 0.00 89 1009.9
20260905092344 21 3 0.0 0.0 0.00 0.00 0.00 87 1010.0
20260905091839 21 3 0.0 0.0 0.00 0.00 0.00 89 1010.1
20260905091339 21 3 0.0 0.0 0.00 0.00 0.00 85 1010.1
20260905090838 21 3 0.0 1.6 0.00 0.00 0.00 86 1010.0
20260905090335 21 3 0.0 0.0 0.00 0.00 0.00 90 1010.2
20260905085833 21 3 0.0 0.0 0.00 0.00 0.00 90 1010.0
20260905085328 21 3 0.0 0.0 0.00 0.00 0.00 88 1010.1
20260905084824 21 3 0.0 0.0 0.00 0.00 0.00 89 1010.2
20260905084323 21 3 0.0 0.0 0.00 0.00 0.00 90 1010.0
20260905083818 21 3 0.0 0.0 0.00 0.00 0.00 84 1009.7
20260905083314 21 3 0.0 0.0 0.00 0.00 0.00 84 1009.8
20260905082809 21 3 0.0 1.6 0.00 0.00 0.00 81 1009.9
20260905082307 21 3 0.0 0.0 0.00 0.00 0.00 83 1009.8
20260905081805 21 3 1.6 1.6 0.00 0.00 0.00 83 1010.0
20260905081301 21 3 1.6 1.6 0.00 0.00 0.00 85 1009.9
20260905080800 21 3 0.0 0.0 0.00 0.00 0.00 87 1010.1
20260905080300 21 3 0.0 0.0 0.00 0.00 0.00 87 1010.1
20260905075758 21 3 0.0 0.0 0.00 0.00 0.00 86 1010.1
20260905075258 21 3 0.0 0.0 0.00 0.00 0.00 86 1010.0
20260905074757 21 3 0.0 0.0 0.00 0.00 0.00 89 1010.0
20260905074254 21 3 0.0 0.0 0.00 0.00 0.00 86 1010.1
20260905073749 21 3 0.0 0.0 0.00 0.00 0.00 87 1010.0
20260905073244 21 3 0.0 0.0 0.00 0.00 0.00 87 1009.9
20260905072743 21 3 0.0 0.0 0.00 0.00 0.00 84 1009.9
20260905072239 21 3 0.0 0.0 0.00 0.00 0.00 85 1010.2
20260905071736 21 3 0.0 0.0 0.00 0.00 0.00 85 1010.1
20260905071231 21 3 0.0 0.0 0.00 0.00 0.00 85 1010.0
20260905070726 21 3 0.0 0.0 0.00 0.00 0.00 85 1010.3
20260905070222 21 3 0.0 0.0 0.00 0.00 0.00 83 1010.1
20260905065720 21 3 0.0 0.0 0.00 0.00 0.00 81 1010.2
20260905065215 21 3 0.0 0.0 0.00 0.00 0.00 80 1010.1
20260905064710 22 3 0.0 0.0 0.00 0.00 0.00 84 1010.2
20260905064206 22 3 0.0 0.0 0.00 0.00 0.00 85 1010.0
20260905063704 22 3 0.0 1.6 0.00 0.00 0.00 78 1010.3
20260905063201 22 3 0.0 0.0 0.00 0.00 0.00 80 1010.3
20260905062657 22 3 0.0 1.6 0.00 0.00 0.00 82 1010.1
20260905062156 22 3 1.6 1.6 0.00 0.00 0.00 78 1010.3
20260905061655 22 3 0.0 0.0 0.00 0.00 0.00 78 1010.4
20260905061150 22 3 1.6 1.6 0.00 0.00 0.00 77 1010.3
20260905060645 22 3 1.6 1.6 0.00 0.00 0.00 78 1010.5
20260905060142 22 3 1.6 1.6 0.00 0.00 0.00 76 1010.4
20260905055640 22 4 0.0 1.6 0.00 0.00 0.00 77 1010.3
20260905055136 22 4 1.6 1.6 0.00 0.00 0.00 76 1010.4
20260905054631 22 4 1.6 3.2 0.00 0.00 0.00 76 1010.6
20260905054127 22 4 1.6 1.6 0.00 0.00 0.00 75 1010.6
20260905053626 22 4 0.0 1.6 0.00 0.00 0.00 77 1010.5
20260905053122 22 6 1.6 1.6 0.00 0.00 0.00 80 1010.7
20260905052621 22 6 0.0 0.0 0.00 0.00 0.00 81 1010.8
20260905052115 22 6 0.0 1.6 0.00 0.00 0.00 83 1010.5
20260905051611 21 7 0.0 0.0 0.00 0.00 0.00 87 1010.7
20260905051108 21 6 0.0 0.0 0.00 0.00 0.00 88 1010.6
20260905050604 21 7 0.0 0.0 0.00 0.00 0.00 89 1010.6
20260905050101 21 6 0.0 0.0 0.00 0.00 0.00 89 1010.8
20260905045600 21 6 0.0 0.0 0.00 0.00 0.00 88 1010.7
20260905045056 21 7 0.0 0.0 0.00 0.00 0.00 90 1010.9
20260905044555 21 7 0.0 0.0 0.00 0.00 0.00 87 1010.8
20260905044050 22 6 0.0 0.0 0.00 0.00 0.00 89 1010.8
20260905043549 22 7 0.0 0.0 0.00 0.00 0.00 89 1010.9
20260905043045 22 6 0.0 0.0 0.00 0.00 0.00 86 1010.9
20260905042543 22 6 0.0 0.0 0.00 0.00 0.00 84 1010.8
20260905042039 22 6 0.0 0.0 0.00 0.00 0.00 84 1011.1
20260905041534 23 6 0.0 1.6 0.00 0.00 0.00 78 1011.1
20260905041030 23 6 1.6 1.6 0.00 0.00 0.00 77 1011.1
20260905040529 23 6 0.0 0.0 0.00 0.00 0.00 77 1011.3
20260905040028 22 7 0.0 0.0 0.00 0.05 0.05 77 1010.9
20260905035523 22 7 0.0 0.0 0.00 0.05 0.05 79 1011.1
20260905035020 22 7 0.0 0.0 0.00 0.05 0.05 85 1011.1
20260905034515 22 7 0.0 0.0 0.00 0.05 0.05 84 1011.2
20260905034015 22 7 0.0 0.0 0.00 0.05 0.05 88 1011.2
20260905033515 22 7 0.0 0.0 0.00 0.05 0.05 86 1011.0
20260905033011 22 7 0.0 0.0 0.00 0.05 0.05 84 1011.0
20260905032505 22 7 0.0 0.0 0.00 0.05 0.05 86 1010.9
20260905032000 22 7 0.0 0.0 0.00 0.05 0.05 87 1011.1
20260905031456 22 7 0.0 0.0 0.00 0.05 0.05 86 1010.9
20260905030951 22 7 0.0 0.0 0.00 0.05 0.05 87 1011.0
20260905030446 22 7 0.0 0.0 0.00 0.05 0.05 87 1011.0
20260905025945 22 7 0.0 1.6 0.00 0.05 0.05 88 1010.9
20260905025441 22 7 0.0 0.0 0.00 0.05 0.05 87 1010.7
20260905024937 23 7 0.0 0.0 0.00 0.05 0.05 87 1010.8
20260905024437 23 6 0.0 0.0 0.00 0.05 0.05 89 1010.8
20260905023933 23 7 0.0 0.0 0.00 0.05 0.05 87 1010.8
20260905023428 23 6 0.0 0.0 0.00 0.05 0.05 82 1010.8
20260905022927 23 7 0.0 0.0 0.00 0.05 0.05 79 1010.8
20260905022422 24 7 0.0 0.0 0.00 0.05 0.05 78 1010.9
20260905021918 24 7 0.0 0.0 0.00 0.05 0.05 79 1010.7
20260905021418 24 7 0.0 0.0 0.00 0.05 0.05 79 1010.6
20260905020913 24 7 0.0 0.0 0.00 0.05 0.05 80 1010.8
20260905020412 24 7 0.0 1.6 0.00 0.05 0.05 80 1011.0
20260905015912 24 7 0.0 1.6 0.00 0.05 0.05 81 1011.0
20260905015410 24 7 0.0 0.0 0.00 0.05 0.05 80 1010.9
20260905014910 24 7 0.0 1.6 0.00 0.05 0.05 82 1010.9
20260905014406 24 7 0.0 0.0 0.00 0.05 0.05 83 1011.1
20260905013901 24 7 0.0 0.0 0.00 0.05 0.05 81 1011.2
20260905013357 24 7 0.0 0.0 0.00 0.05 0.05 84 1010.7
20260905012858 24 7 0.0 0.0 0.00 0.05 0.05 85 1010.9
20260905012353 24 7 0.0 0.0 0.00 0.05 0.05 85 1011.0
20260905011850 24 7 0.0 0.0 0.00 0.05 0.05 88 1010.8
20260905011345 24 6 0.0 0.0 0.00 0.05 0.05 86 1011.2
20260905010840 24 7 0.0 0.0 0.00 0.05 0.05 85 1011.1
20260905010335 24 7 0.0 0.0 0.00 0.05 0.05 84 1011.2
20260905005832 24 7 0.0 0.0 0.00 0.05 0.05 85 1010.9
20260905005327 24 7 0.0 0.0 0.00 0.05 0.05 84 1010.9
20260905004822 24 7 0.0 0.0 0.00 0.05 0.05 85 1010.7
20260905004316 24 7 0.0 0.0 0.00 0.05 0.05 86 1010.7
20260905003812 23 7 0.0 1.6 0.00 0.05 0.05 86 1010.8
20260905003308 23 7 1.6 1.6 0.00 0.05 0.05 90 1010.7
20260905002808 23 7 0.0 1.6 0.00 0.05 0.05 89 1010.7
20260905002306 23 7 0.0 1.6 0.00 0.05 0.05 89 1010.5
20260905001758 24 7 0.0 0.0 0.00 0.05 0.05 87 1010.5
20260905001257 24 6 0.0 0.0 0.00 0.05 0.05 86 1010.5
20260905000753 24 7 0.0 0.0 0.00 0.05 0.05 86 1010.4
20260905000248 25 7 0.0 0.0 0.00 0.05 0.05 85 1010.5
20260904235743 25 7 0.0 0.0 0.00 0.05 0.05 83 1010.5
20260904235238 25 7 0.0 0.0 0.00 0.05 0.05 83 1010.5
20260904234733 25 7 0.0 0.0 0.00 0.05 0.05 83 1010.5
20260904234228 25 7 0.0 0.0 0.00 0.05 0.05 82 1010.7
20260904233724 25 6 0.0 0.0 0.00 0.05 0.05 80 1010.6
20260904233220 25 7 0.0 0.0 0.00 0.05 0.05 81 1010.4
20260904232716 25 7 0.0 0.0 0.00 0.05 0.05 79 1010.5
20260904232212 25 7 0.0 0.0 0.00 0.05 0.05 80 1010.6
20260904231708 25 7 0.0 0.0 0.00 0.05 0.05 77 1010.5
20260904231203 25 7 0.0 0.0 0.00 0.05 0.05 77 1010.5
20260904230702 26 7 0.0 0.0 0.00 0.05 0.05 77 1010.4
20260904230157 26 7 0.0 0.0 0.00 0.05 0.05 74 1010.6
20260904225655 26 6 0.0 0.0 0.00 0.05 0.05 72 1010.6
20260904225150 27 6 0.0 0.0 0.00 0.05 0.05 71 1010.5
20260904224644 27 7 0.0 1.6 0.00 0.05 0.05 69 1010.6
20260904224144 27 6 0.0 3.2 0.00 0.05 0.05 68 1010.6
20260904223644 27 7 1.6 1.6 0.00 0.05 0.05 66 1010.5
20260904223140 28 34 1.6 3.2 0.00 0.05 0.05 65 1010.5
20260904222636 28 28 3.2 4.8 0.00 0.05 0.05 64 1010.7
20260904222131 28 49 1.6 3.2 0.00 0.05 0.05 64 1010.6
20260904221630 28 355 3.2 9.7 0.00 0.05 0.05 63 1010.8
20260904221125 27 30 3.2 11.3 0.00 0.05 0.05 64 1010.7
20260904220620 27 50 1.6 1.6 0.00 0.05 0.05 69 1010.5
20260904220116 27 51 1.6 1.6 0.00 0.05 0.05 68 1010.4
20260904215615 27 85 0.0 0.0 0.00 0.05 0.05 69 1010.6
20260904215112 27 144 0.0 1.6 0.00 0.05 0.05 67 1010.7
20260904214606 27 145 1.6 3.2 0.00 0.05 0.05 66 1010.6
20260904214102 28 28 0.0 1.6 0.00 0.05 0.05 66 1010.5
20260904213600 28 28 0.0 3.2 0.00 0.05 0.05 65 1010.3
20260904213057 28 26 0.0 1.6 0.00 0.05 0.05 65 1010.4
20260904212556 28 31 0.0 1.6 0.00 0.05 0.05 64 1010.4
20260904212052 28 31 1.6 4.8 0.00 0.05 0.05 64 1010.2
20260904211551 28 57 1.6 3.2 0.00 0.05 0.05 63 1010.7
20260904211047 29 36 1.6 4.8 0.00 0.05 0.05 61 1010.5
20260904210546 30 26 4.8 12.9 0.00 0.05 0.05 59 1010.4
20260904210042 29 19 1.6 11.3 0.00 0.05 0.05 60 1010.4
20260904205542 29 347 3.2 4.8 0.00 0.05 0.05 60 1010.5
20260904205039 29 57 1.6 3.2 0.00 0.05 0.05 59 1010.6
20260904204535 30 343 3.2 11.3 0.00 0.05 0.05 58 1010.7
20260904204031 29 11 1.6 3.2 0.00 0.05 0.05 60 1010.4
20260904203526 30 305 3.2 4.8 0.00 0.05 0.05 57 1010.7
20260904203023 30 70 1.6 1.6 0.00 0.05 0.05 57 1010.7
20260904202518 30 25 6.4 9.7 0.00 0.05 0.05 57 1010.6
20260904202014 30 357 3.2 4.8 0.00 0.05 0.05 60 1010.8
20260904201509 29 40 1.6 6.4 0.00 0.05 0.05 60 1010.7
20260904201005 28 45 1.6 3.2 0.00 0.05 0.05 61 1010.7
20260904200503 29 35 0.0 4.8 0.00 0.05 0.05 60 1011.2
20260904195958 30 24 3.2 16.1 0.00 0.05 0.05 57 1011.2
20260904195456 30 47 1.6 1.6 0.00 0.05 0.05 60 1011.1
20260904194955 30 356 3.2 4.8 0.00 0.05 0.05 59 1010.8
20260904194451 30 336 3.2 6.4 0.00 0.05 0.05 57 1011.1
20260904193946 30 193 3.2 4.8 0.00 0.05 0.05 58 1011.0
20260904193441 30 306 0.0 1.6 0.00 0.05 0.05 58 1011.2
20260904192936 30 84 1.6 6.4 0.00 0.05 0.05 58 1011.3
20260904192431 30 316 3.2 4.8 0.00 0.05 0.05 56 1011.3
20260904191927 30 76 1.6 4.8 0.00 0.05 0.05 58 1011.4
20260904191424 30 326 4.8 9.7 0.00 0.05 0.05 57 1011.4
20260904190921 30 6 4.8 11.3 0.00 0.05 0.05 56 1011.4
20260904190420 30 317 3.2 6.4 0.00 0.05 0.05 58 1011.2
20260904185917 30 249 6.4 9.7 0.00 0.05 0.05 56 1011.5
20260904185413 30 134 1.6 6.4 0.00 0.05 0.05 63 1011.8
20260904184913 30 14 3.2 4.8 0.00 0.05 0.05 60 1011.5
20260904184407 29 326 3.2 6.4 0.00 0.05 0.05 61 1011.7
20260904183902 28 294 3.2 4.8 0.00 0.05 0.05 64 1011.7
20260904183357 28 28 4.8 12.9 0.00 0.05 0.05 64 1011.8
20260904182853 28 58 1.6 4.8 0.00 0.05 0.05 65 1011.7
20260904182348 28 31 1.6 3.2 0.00 0.05 0.05 63 1011.6
20260904181843 29 20 3.2 4.8 0.00 0.05 0.05 63 1011.7
20260904181344 28 5 4.8 6.4 0.00 0.05 0.05 63 1011.8
20260904180839 28 335 4.8 6.4 0.00 0.05 0.05 62 1011.7
20260904180335 28 321 6.4 9.7 0.00 0.05 0.05 62 1012.0
20260904175833 29 14 3.2 9.7 0.00 0.05 0.05 63 1011.9
20260904175334 29 212 4.8 6.4 0.00 0.05 0.05 61 1011.9
20260904174832 29 11 6.4 9.7 0.00 0.05 0.05 61 1011.8
20260904174329 28 305 3.2 6.4 0.00 0.05 0.05 62 1011.7
20260904173824 28 63 1.6 4.8 0.00 0.05 0.05 65 1012.1
20260904173320 28 29 1.6 1.6 0.00 0.05 0.05 64 1011.8
20260904172816 28 15 3.2 4.8 0.00 0.05 0.05 63 1011.7
20260904172314 29 345 0.0 3.2 0.00 0.05 0.05 61 1011.9
20260904171810 29 22 3.2 6.4 0.00 0.05 0.05 61 1011.8
20260904171305 29 37 4.8 6.4 0.00 0.05 0.05 60 1011.6
20260904170801 30 356 3.2 4.8 0.00 0.05 0.05 61 1011.7
20260904170257 29 7 4.8 6.4 0.00 0.05 0.05 58 1011.8
20260904165756 29 321 6.4 9.7 0.00 0.05 0.05 62 1012.0
20260904165250 29 337 3.2 6.4 0.00 0.05 0.05 61 1011.7
20260904164750 29 341 4.8 9.7 0.00 0.05 0.05 61 1011.8
20260904164246 29 319 6.4 11.3 0.00 0.05 0.05 60 1011.6
20260904163742 30 79 1.6 1.6 0.00 0.05 0.05 60 1011.7
20260904163237 30 22 4.8 6.4 0.00 0.05 0.05 59 1011.8
20260904162735 30 2 6.4 6.4 0.00 0.05 0.05 57 1011.6
20260904162231 30 53 1.6 4.8 0.00 0.05 0.05 60 1011.8
20260904161727 30 320 3.2 4.8 0.00 0.05 0.05 60 1011.8
20260904161226 29 68 3.2 4.8 0.00 0.05 0.05 60 1012.0
20260904160722 29 345 4.8 9.7 0.00 0.05 0.05 60 1011.9
20260904160218 30 321 3.2 4.8 0.00 0.05 0.05 58 1011.8
20260904155717 30 324 6.4 9.7 0.00 0.05 0.05 60 1012.1
20260904155217 29 25 1.6 6.4 0.00 0.05 0.05 66 1011.9
20260904154715 30 339 3.2 4.8 0.00 0.05 0.05 62 1011.9
20260904154210 29 34 1.6 3.2 0.00 0.05 0.05 66 1011.9
20260904153706 29 343 11.3 14.5 0.00 0.05 0.05 61 1012.0
20260904153201 29 54 4.8 14.5 0.00 0.05 0.05 62 1011.9
20260904152658 29 113 3.2 9.7 0.00 0.05 0.05 61 1012.2
20260904152153 28 5 6.4 14.5 0.00 0.05 0.05 62 1012.4
20260904151648 28 312 9.7 12.9 0.00 0.05 0.05 62 1012.1
20260904151146 28 103 3.2 11.3 0.00 0.05 0.05 63 1012.4
20260904150642 28 336 8.0 12.9 0.00 0.05 0.05 63 1012.3
20260904150138 28 314 6.4 12.9 0.00 0.05 0.05 68 1012.3
20260904145636 28 87 3.2 6.4 0.00 0.05 0.05 65 1012.2
20260904145131 28 310 6.4 9.7 0.00 0.05 0.05 66 1012.1
20260904144627 28 46 1.6 9.7 0.00 0.05 0.05 68 1012.1
20260904144122 28 340 4.8 9.7 0.00 0.05 0.05 67 1012.1
20260904143618 28 288 6.4 12.9 0.00 0.05 0.05 67 1012.2
20260904143115 27 341 6.4 11.3 0.00 0.05 0.05 68 1012.3
20260904142611 27 6 11.3 14.5 0.00 0.05 0.05 68 1012.3
20260904142111 27 345 6.4 14.5 0.00 0.05 0.05 70 1012.0
20260904141606 27 28 3.2 16.1 0.00 0.05 0.05 70 1012.1
20260904141102 27 20 6.4 12.9 0.00 0.05 0.05 71 1012.1
20260904140558 27 104 4.8 11.3 0.00 0.05 0.05 72 1012.1
20260904140057 27 313 6.4 12.9 0.00 0.05 0.05 72 1012.4
20260904135557 27 48 3.2 6.4 0.00 0.05 0.05 77 1012.1
20260904135053 27 335 4.8 9.7 0.00 0.05 0.05 79 1011.9
20260904134549 27 6 3.2 6.4 0.00 0.05 0.05 80 1012.2
20260904134042 26 8 4.8 6.4 0.00 0.05 0.05 81 1011.9
20260904133537 26 39 3.2 12.9 0.00 0.05 0.05 81 1012.2
20260904133034 26 5 4.8 11.3 0.00 0.05 0.05 82 1012.0
20260904132534 26 36 3.2 6.4 0.00 0.05 0.05 83 1012.2
20260904132033 26 322 3.2 6.4 0.00 0.05 0.05 85 1011.8
20260904131533 26 333 4.8 11.3 0.00 0.05 0.05 86 1011.9
20260904131029 26 41 4.8 9.7 0.00 0.05 0.05 85 1011.9
20260904130528 25 352 3.2 4.8 0.00 0.05 0.05 86 1012.0
20260904130023 25 13 6.4 12.9 0.00 0.05 0.05 87 1012.0
20260904125520 25 8 3.2 11.3 0.00 0.05 0.05 89 1012.1
20260904125014 25 358 6.4 9.7 0.00 0.05 0.05 90 1012.0
20260904124510 25 20 6.4 12.9 0.00 0.05 0.05 90 1012.0
20260904124006 24 309 4.8 6.4 0.00 0.05 0.05 90 1012.3
20260904123505 24 320 6.4 11.3 0.00 0.05 0.05 91 1011.9
20260904123001 24 353 6.4 6.4 0.00 0.05 0.05 92 1012.0
20260904122455 24 358 8.0 9.7 0.00 0.05 0.05 93 1011.8
20260904121949 23 6 6.4 11.3 0.00 0.05 0.05 93 1011.8
20260904121445 23 358 4.8 9.7 0.00 0.05 0.05 94 1011.8
20260904120942 23 3 6.4 9.7 0.00 0.05 0.05 95 1011.7
20260904120437 23 353 3.2 4.8 0.00 0.05 0.05 95 1011.5
20260904115932 23 34 1.6 1.6 0.00 0.05 0.05 96 1011.6
20260904115428 23 21 3.2 3.2 0.00 0.05 0.05 96 1011.5
20260904114928 23 2 3.2 4.8 0.00 0.05 0.05 96 1011.8
20260904114427 23 39 1.6 3.2 0.00 0.05 0.05 96 1012.0
20260904113923 23 40 1.6 3.2 0.00 0.05 0.05 96 1011.5
20260904113423 23 2 3.2 3.2 0.00 0.05 0.05 96 1011.6
20260904112922 23 28 3.2 3.2 0.00 0.05 0.05 96 1011.6
20260904112418 23 40 1.6 3.2 0.00 0.05 0.05 96 1011.6
20260904111913 23 359 3.2 6.4 0.00 0.05 0.05 96 1011.2
20260904111409 23 316 4.8 4.8 0.00 0.05 0.05 97 1011.3
20260904110905 23 48 1.6 4.8 0.00 0.05 0.05 97 1011.3
20260904110403 23 48 1.6 1.6 0.00 0.05 0.05 98 1011.1
20260904105858 23 52 0.0 1.6 0.00 0.05 0.05 98 1011.0
20260904105353 23 65 0.0 0.0 0.00 0.05 0.05 98 1011.0
20260904104848 23 42 1.6 1.6 0.00 0.05 0.05 98 1010.6